Regional Weather Roundup
Issued by NWS

Home | Current Version | Previous Version | Graphics & Text | Print | Product List | Glossary On
Versions: 1 2 3 4 5 6 7 8 9 10 11 12 13 14 15 16 17 18 19 20 21 22 23 24 25 26 27 28
000
ASUS45 KBOU 250310
RWRCO

WEATHER ROUNDUP FOR COLORADO
NATIONAL WEATHER SERVICE DENVER/BOULDER CO
900 PM MDT SAT SEP 24 2016

NOTE: "FAIR" INDICATES FEW OR NO CLOUDS BELOW 12000 FEET WITH NO
SIGNIFICANT WEATHER AND/OR OBSTRUCTIONS TO VISIBILITY.

COZ001>005-013-030-031-250400-
...NORTHWEST COLORADO...

CITY           SKY/WX    TMP DP  RH WIND       PRES   REMARKS
CRAIG          CLOUDY    45  41  86 CALM      30.36R
HAYDEN         CLOUDY    41  37  87 SW3       30.37R
MEEKER         CLOUDY    46  42  86 NE3       30.37R
MOUNT WERNER   NOT AVBL
STEAMBOAT SPGS CLOUDY    41  39  93 S3        30.37R
WALDEN           N/A     36  32  87 NW9       30.38R
$$

COZ006>008-011-250400-
...WEST CENTRAL VALLEYS...

CITY           SKY/WX    TMP DP  RH WIND       PRES   REMARKS
GRAND JUNCTION CLOUDY    54  43  66 NE8       30.30R
MONTROSE       CLOUDY    53  43  68 NW6       30.33R
EAGLE          CLOUDY    46  37  71 NW3       30.37R
RIFLE          CLOUDY    50  47  89 S3        30.35R
DELTA          NOT AVBL
NUCLA          CLOUDY    54  36  50 NE6       30.34R
$$

COZ017>023-064>068-250400-
...SOUTHWEST COLORADO...

CITY           SKY/WX    TMP DP  RH WIND       PRES   REMARKS
DURANGO        FAIR      49  31  49 NW6       30.25R
CORTEZ         CLOUDY    52  39  61 N7        30.27R
PAGOSA SPRINGS FAIR      44  34  69 NE5       30.29R
TELLURIDE      CLOUDY    42  32  68 CALM      30.40R
WOLF CREEK PAS FAIR      28  27  93 MISG      30.48R
$$

COZ009-010-012-014-032>034-037-058>063-250400-
...CENTRAL COLORADO...

CITY           SKY/WX    TMP DP  RH WIND       PRES   REMARKS
ASPEN          CLOUDY    43  36  76 NW5       30.38R
BUENA VISTA    FAIR      45  27  50 NW7       30.33R
COPPER MTN     CLOUDY    32  28  86 MISG      30.47R HAZE
BERTHOUD PASS  CLOUDY    23  10  58 MISG      30.43S
COTTONWOOD PAS FAIR      41  27  56 W3G16     30.38R
GUNNISON       FAIR      39  34  81 CALM      30.36R
KREMMLING      CLOUDY    43  32  65 NE3       30.38R
LEADVILLE      MOCLDY    35  26  69 N6        30.39R WCI  30
SALIDA         FAIR      48  29  48 W10       30.39R
SUNLIGHT       FOG       32  32 100 MISG      30.50R VSB<1/4
WILKERSON PASS FAIR      32  21  64 NE7       30.46R WCI  26
$$

COZ069>075-250400-
...SAN LUIS VALLEY/SANGRE DE CRISTO MOUNTAINS...

CITY           SKY/WX    TMP DP  RH WIND       PRES   REMARKS
ALAMOSA        FAIR      46  28  49 N14       30.30R
LA VETA PASS   FAIR      39  27  60 MISG      30.37R
SAGUACHE       NOT AVBL
$$

COZ035-036-038>040-250400-
...NORTHERN COLORADO FRONT RANGE...

CITY           SKY/WX    TMP DP  RH WIND       PRES   REMARKS
DENVER INTL AP FAIR      51  29  42 NE8       30.22R
DMNS CITY PARK   N/A     55  33  43 N5        30.21R
AURORA         PTCLDY    53  29  41 W7        30.23R
FRONT RANGE AP PTCLDY    52  27  37 N7        30.17F
ERIE MUNI ARPT FAIR      53  30  41 CALM      30.21R
BOULDER MUN AP FAIR      57  30  35 CALM      30.21R
CENTENNIAL     FAIR      54  29  38 N8        30.23R
BROOMFIELD     MOCLDY    52  30  43 W6        30.22R
FORT COLLINS   FAIR      57  34  41 N23G31    30.22R
LONGMONT       MOCLDY    59  31  34 CALM      30.22R
$$

COZ041-046-047-076>085-087-088-250400-
...PIKES PEAK/PALMER DIVIDE AND SOUTHERN FOOTHILLS...

CITY           SKY/WX    TMP DP  RH WIND       PRES   REMARKS
COLO. SPRINGS  FAIR      57  23  26 N21       30.21R
A. F. ACADEMY  FAIR      52  23  32 N13       30.23R
SCHRIEVER AFB  NOT AVBL
ELLICOTT       FAIR     N/A N/A N/A N12       30.20R
FALCON         FAIR      51  23  32 N12       30.25R
FORT CARSON    FAIR      55  24  30 N12       30.17R
LIMON          MOCLDY    57  26  30 N13       30.19R
MONUMENT HILL  FAIR      45  27  49 NW9       30.29R
TRINIDAD       FAIR      58  25  28 N12       30.17R
$$

COZ042>045-048>051-090-091-250400-
...NORTHEAST COLORADO...

CITY           SKY/WX    TMP DP  RH WIND       PRES   REMARKS
GREELEY ARPT   FAIR      55  36  47 N29       30.20R
AKRON          FAIR      54  37  52 N16       30.20R
BURLINGTON     MOCLDY    56  42  59 E3        30.11R
WRAY           NOT AVBL
STERLING       FAIR      54  39  58 N12       30.17R
HOLYOKE        FAIR      59  41  51 N10       30.15R
FORT MORGAN    FAIR      55  35  45 N18G24    30.19R
$$

COZ086-089-092>099-250400-
...SOUTHEAST COLORADO...

CITY           SKY/WX    TMP DP  RH WIND       PRES   REMARKS
PUEBLO         FAIR      63  27  25 NW12      30.14R
LA JUNTA       FAIR      61  33  35 N9        30.11R
LAMAR          FAIR      59  35  40 SE6       30.03R
SPRINGFIELD    NOT AVBL
$$




USA.gov is the U.S. government's official web portal to all federal, state and local government web resources and services.